TURKMENALEM52E/MONACOSAT
1 40617U 15023A   19261.15262391  .00000100  00000-0  00000+0 0  9997
2 40617   0.0202 162.8323 0002791  16.8604 284.0312  1.00270497 16123
FALCON 9 R/B            
1 40618U 15023B   19260.98962502  .00018820  37730-6  90168-3 0  9991
2 40618  25.3514  32.0470 6849337 324.7447   5.0749  2.88244067 41717